DW4669 Weather Reports


Display with metric or nautical units.
time (UTC)temp
F
wind
direction
speed
MPH
gust
MPH
rain 1hr
in
rain 24hr
in
rain mn
in
humidity
%
barometer
mb
20260903154018 76 0 0.0 4.0 0.00 0.52 0.27 86 1014.3
20260903153519 76 237 0.0 4.0 0.00 0.52 0.27 87 1014.3
20260903153034 76 0 1.0 6.0 0.00 0.52 0.27 87 1014.4
20260903152521 75 0 0.0 8.0 0.00 0.52 0.27 88 1014.6
20260903152017 75 96 1.0 8.0 0.00 0.52 0.27 88 1014.7
20260903151536 75 351 1.0 8.0 0.00 0.52 0.27 88 1014.7
20260903151018 74 0 1.0 5.0 0.00 0.52 0.27 89 1014.7
20260903150515 74 298 0.0 5.0 0.00 0.52 0.27 89 1014.7
20260903150033 74 0 0.0 5.0 0.00 0.52 0.27 88 1014.6
20260903145518 74 0 0.0 8.0 0.00 0.52 0.27 90 1014.7
20260903145019 73 0 0.0 8.0 0.00 0.52 0.27 89 1014.7
20260903144539 73 306 1.0 7.0 0.00 0.52 0.27 90 1014.8
20260903144017 73 253 1.0 7.0 0.00 0.52 0.27 91 1014.8
20260903143518 73 0 0.0 3.0 0.00 0.52 0.27 92 1014.8
20260903143036 72 0 0.0 6.0 0.00 0.52 0.27 92 1014.8
20260903142516 72 190 1.0 6.0 0.00 0.52 0.27 92 1014.8
20260903142020 72 0 0.0 9.0 0.00 0.52 0.27 92 1014.9
20260903141534 72 0 0.0 9.0 0.00 0.52 0.27 92 1014.6
20260903141018 72 287 0.0 5.0 0.00 0.52 0.27 93 1014.8
20260903140515 71 0 0.0 5.0 0.00 0.52 0.27 93 1014.8
20260903140036 71 0 0.0 4.0 0.00 0.52 0.27 94 1014.7
20260903135515 71 176 0.0 6.0 0.00 0.52 0.27 94 1014.6
20260903135019 71 163 2.0 6.0 0.00 0.52 0.27 95 1014.5
20260903134533 70 107 0.0 2.0 0.00 0.52 0.27 96 1014.5
20260903134015 70 0 0.0 4.0 0.00 0.52 0.27 97 1014.6
20260903133519 70 0 0.0 4.0 0.00 0.52 0.27 97 1014.6
20260903133033 69 232 0.0 5.0 0.00 0.52 0.27 97 1014.6
20260903132519 69 0 0.0 5.0 0.00 0.52 0.27 97 1014.6
20260903132017 69 0 1.0 4.0 0.00 0.52 0.27 98 1014.5
20260903131540 69 268 0.0 5.0 0.00 0.52 0.27 98 1014.6
20260903131016 69 0 0.0 5.0 0.00 0.52 0.27 98 1014.6
20260903130518 69 0 0.0 5.0 0.00 0.52 0.27 98 1014.4
20260903130051 69 0 0.0 5.0 0.00 0.52 0.27 98 1014.5
20260903125521 68 0 0.0 3.0 0.00 0.52 0.27 98 1014.4
20260903125016 68 0 0.0 3.0 0.00 0.52 0.27 98 1014.4
20260903124538 68 0 0.0 3.0 0.00 0.52 0.27 98 1014.4
20260903124016 68 0 0.0 3.0 0.00 0.52 0.27 98 1014.4
20260903123518 68 0 0.0 4.0 0.00 0.52 0.27 98 1014.6
20260903123036 68 0 0.0 4.0 0.00 0.52 0.27 98 1014.6
20260903122517 68 0 0.0 3.0 0.00 0.52 0.27 98 1014.7
20260903122017 67 0 0.0 3.0 0.00 0.52 0.27 98 1014.7
20260903121544 67 0 0.0 3.0 0.00 0.52 0.27 98 1014.8
20260903121015 67 0 0.0 3.0 0.00 0.52 0.27 98 1014.7
20260903120516 67 0 0.0 3.0 0.00 0.52 0.27 98 1014.6
20260903120033 67 0 0.0 3.0 0.00 0.52 0.27 98 1014.8
20260903115517 67 226 0.0 3.0 0.00 0.52 0.27 99 1014.7
20260903115017 67 0 0.0 0.0 0.00 0.52 0.27 98 1014.7
20260903114536 67 0 0.0 0.0 0.00 0.52 0.27 98 1014.9
20260903114017 66 0 0.0 0.0 0.00 0.52 0.27 98 1015.0
20260903113516 66 0 0.0 0.0 0.00 0.52 0.27 98 1014.9
20260903113039 66 0 0.0 1.0 0.00 0.52 0.27 98 1014.9
20260903112518 66 0 0.0 2.0 0.00 0.52 0.27 98 1015.1
20260903112018 66 0 0.0 2.0 0.00 0.52 0.27 98 1015.2
20260903111536 66 0 0.0 1.0 0.00 0.52 0.27 98 1015.1
20260903111018 66 0 0.0 1.0 0.00 0.52 0.27 98 1015.3
20260903110521 66 0 0.0 1.0 0.00 0.52 0.27 98 1015.1
20260903110107 66 0 0.0 0.0 0.00 0.52 0.27 98 1015.0
20260903105519 66 0 0.0 0.0 0.00 0.52 0.27 98 1015.3
20260903105017 66 0 0.0 0.0 0.00 0.52 0.27 98 1015.2
20260903104534 66 0 0.0 0.0 0.00 0.52 0.27 98 1015.0
20260903104017 66 0 0.0 0.0 0.00 0.52 0.27 98 1015.2
20260903103520 66 0 0.0 0.0 0.00 0.52 0.27 98 1015.3
20260903103034 66 0 0.0 0.0 0.00 0.52 0.27 98 1015.2
20260903102519 66 0 0.0 0.0 0.00 0.52 0.27 98 1015.2
20260903102017 66 0 0.0 0.0 0.00 0.52 0.27 98 1015.2
20260903101534 66 0 0.0 0.0 0.00 0.52 0.27 98 1015.4
20260903101015 66 0 0.0 0.0 0.00 0.52 0.27 98 1015.3
20260903100518 66 0 0.0 0.0 0.00 0.52 0.27 98 1015.3
20260903100036 66 0 0.0 0.0 0.00 0.52 0.27 98 1015.1
20260903095521 66 0 0.0 0.0 0.00 0.52 0.27 98 1015.2
20260903095018 66 0 0.0 0.0 0.00 0.52 0.27 98 1015.2
20260903094549 66 0 0.0 1.0 0.00 0.52 0.27 98 1015.2
20260903094018 66 0 0.0 1.0 0.00 0.52 0.27 98 1014.9
20260903093518 66 0 0.0 1.0 0.00 0.52 0.27 98 1014.7
20260903093039 66 0 0.0 1.0 0.00 0.52 0.27 98 1014.6
20260903092518 66 0 0.0 1.0 0.00 0.52 0.27 98 1014.5
20260903092020 66 101 0.0 1.0 0.01 0.52 0.27 98 1014.6
20260903091535 66 0 0.0 0.0 0.01 0.52 0.27 98 1014.5
20260903091015 66 0 0.0 0.0 0.01 0.52 0.27 98 1014.6
20260903090515 66 0 0.0 0.0 0.01 0.52 0.27 98 1015.0
20260903090039 66 0 0.0 1.0 0.01 0.52 0.27 98 1014.9
20260903085518 66 0 0.0 1.0 0.01 0.52 0.27 98 1014.9
20260903085018 66 0 0.0 4.0 0.01 0.52 0.27 98 1015.1
20260903084537 65 0 0.0 4.0 0.01 0.52 0.27 98 1015.1
20260903084016 65 0 0.0 0.0 0.01 0.52 0.27 98 1015.0
20260903083516 65 0 0.0 1.0 0.01 0.52 0.27 98 1014.9
20260903083036 65 0 0.0 1.0 0.01 0.52 0.27 98 1014.9
20260903082519 65 0 0.0 1.0 0.01 0.52 0.27 98 1015.0
20260903082016 65 0 0.0 0.0 0.00 0.52 0.26 98 1014.7
20260903081542 65 0 0.0 0.0 0.00 0.52 0.26 98 1014.5
20260903081017 65 0 0.0 0.0 0.00 0.52 0.26 98 1014.7
20260903080517 65 0 0.0 0.0 0.00 0.52 0.26 98 1014.7
20260903080037 65 0 0.0 0.0 0.00 0.52 0.26 98 1014.8
20260903075518 65 0 0.0 0.0 0.00 0.52 0.26 98 1014.8
20260903075018 65 0 0.0 0.0 0.00 0.52 0.26 98 1015.0
20260903074539 65 0 0.0 0.0 0.00 0.52 0.26 98 1015.1
20260903074021 65 0 0.0 0.0 0.00 0.52 0.26 98 1015.3
20260903073518 65 0 0.0 0.0 0.00 0.52 0.26 98 1015.4
20260903073038 65 0 0.0 0.0 0.00 0.52 0.26 98 1015.5
20260903072519 65 0 0.0 0.0 0.00 0.52 0.26 98 1015.6
20260903072019 65 0 0.0 0.0 0.00 0.52 0.26 98 1015.6
20260903071537 65 0 0.0 0.0 0.00 0.52 0.26 98 1015.6
20260903071016 65 0 0.0 0.0 0.00 0.52 0.26 98 1015.8
20260903070517 65 0 0.0 0.0 0.01 0.52 0.26 98 1015.6
20260903070038 65 0 0.0 0.0 0.01 0.52 0.26 98 1015.4
20260903065520 65 0 0.0 0.0 0.01 0.52 0.26 98 1015.2
20260903065018 65 0 0.0 0.0 0.01 0.52 0.26 98 1015.2
20260903064535 65 0 0.0 0.0 0.01 0.52 0.26 98 1015.3
20260903064018 65 0 0.0 0.0 0.01 0.52 0.26 98 1015.4
20260903063516 65 0 0.0 0.0 0.01 0.52 0.26 98 1015.2
20260903063039 65 0 0.0 0.0 0.01 0.52 0.26 98 1015.1
20260903062518 65 0 0.0 0.0 0.01 0.52 0.26 98 1015.2
20260903062023 65 0 0.0 0.0 0.01 0.52 0.26 98 1015.4
20260903061547 65 0 0.0 0.0 0.01 0.52 0.26 98 1015.6
20260903061017 65 0 0.0 0.0 0.01 0.52 0.26 98 1015.7
20260903060517 65 0 0.0 0.0 0.01 0.51 0.25 98 1016.0
20260903060036 65 0 0.0 0.0 0.02 0.51 0.25 98 1016.1
20260903055523 65 0 0.0 0.0 0.02 0.52 0.25 98 1016.2
20260903055021 65 0 0.0 0.0 0.04 0.52 0.25 98 1016.5
20260903054543 65 0 0.0 0.0 0.05 0.52 0.25 98 1016.8
20260903054018 65 0 0.0 0.0 0.06 0.52 0.25 97 1016.8
20260903053518 65 0 0.0 0.0 0.08 0.52 0.25 97 1016.9
20260903053056 65 0 0.0 0.0 0.09 0.52 0.25 97 1017.0
20260903052516 65 0 0.0 0.0 0.10 0.52 0.25 97 1016.9
20260903052021 65 0 0.0 0.0 0.11 0.52 0.25 97 1016.9
20260903051542 65 0 0.0 1.0 0.13 0.52 0.25 97 1016.8
20260903051023 65 0 0.0 1.0 0.24 0.52 0.25 97 1017.2
20260903050523 65 0 0.0 2.0 0.24 0.51 0.24 97 1017.1
20260903050039 65 0 0.0 2.0 0.23 0.50 0.23 97 1017.1
20260903045520 65 0 0.0 2.0 0.24 0.50 0.23 97 1016.7
20260903045017 65 0 0.0 0.0 0.22 0.48 0.21 97 1016.4
20260903044538 65 0 0.0 0.0 0.21 0.47 0.20 97 1017.3
20260903044017 65 0 0.0 1.0 0.20 0.46 0.19 97 1017.7
20260903043518 65 0 0.0 1.0 0.18 0.44 0.17 97 1018.2
20260903043035 65 0 0.0 5.0 0.17 0.43 0.16 97 1018.8
20260903042525 65 0 0.0 6.0 0.16 0.42 0.15 97 1019.1
20260903042019 65 0 0.0 9.0 0.15 0.41 0.14 97 1019.4
20260903041534 66 281 3.0 9.0 0.11 0.37 0.10 97 1019.5
20260903041017 66 159 0.0 2.0 0.02 0.28 0.01 97 1019.4
20260903040518 66 0 0.0 0.0 0.01 0.27 0.00 97 1018.6
20260903040036 65 0 0.0 0.0 0.01 0.27 0.00 97 1018.4
20260903035516 65 0 0.0 0.0 0.00 0.26 0.26 97 1018.3
20260903035016 65 0 0.0 0.0 0.00 0.26 0.26 97 1018.3
20260903034534 65 0 0.0 0.0 0.00 0.26 0.26 97 1018.5
20260903034018 65 0 0.0 0.0 0.00 0.26 0.26 97 1018.4
20260903033519 65 0 0.0 0.0 0.00 0.26 0.26 97 1018.3
20260903033039 65 0 0.0 0.0 0.00 0.26 0.26 97 1018.4
20260903032519 65 0 0.0 0.0 0.00 0.26 0.26 97 1018.2
20260903032016 65 0 0.0 0.0 0.00 0.26 0.26 97 1018.3
20260903031536 65 0 0.0 0.0 0.00 0.26 0.26 97 1018.4
20260903031016 65 0 0.0 0.0 0.00 0.26 0.26 97 1018.5
20260903030519 65 0 0.0 0.0 0.00 0.26 0.26 97 1018.3
20260903030040 65 0 0.0 2.0 0.00 0.26 0.26 97 1018.1
20260903025516 65 0 0.0 2.0 0.00 0.26 0.26 97 1018.1
20260903025020 65 0 0.0 2.0 0.00 0.26 0.26 97 1018.3
20260903024542 65 0 0.0 0.0 0.00 0.26 0.26 97 1018.0
20260903024018 65 0 0.0 0.0 0.00 0.26 0.26 97 1018.2
20260903023521 65 0 0.0 0.0 0.00 0.26 0.26 97 1018.3
20260903023036 65 0 0.0 0.0 0.00 0.26 0.26 97 1018.5
20260903022520 65 0 0.0 0.0 0.00 0.26 0.26 97 1018.6
20260903022019 65 0 0.0 0.0 0.00 0.26 0.26 97 1018.9
20260903021537 65 0 0.0 0.0 0.00 0.26 0.26 97 1018.9
20260903021018 65 0 0.0 0.0 0.00 0.26 0.26 97 1018.9
20260903020520 65 0 0.0 0.0 0.00 0.26 0.26 97 1018.7
20260903020037 65 0 0.0 0.0 0.00 0.26 0.26 97 1018.6
20260903015518 65 0 0.0 0.0 0.00 0.26 0.26 97 1018.6
20260903015017 65 0 0.0 0.0 0.00 0.26 0.26 97 1018.7
20260903014538 65 0 0.0 0.0 0.00 0.26 0.26 97 1018.9
20260903014018 65 0 0.0 0.0 0.00 0.26 0.26 97 1018.8
20260903013516 65 0 0.0 0.0 0.00 0.26 0.26 97 1018.8
20260903013034 65 0 0.0 0.0 0.00 0.26 0.26 97 1018.9
20260903012518 65 0 0.0 0.0 0.00 0.26 0.26 97 1018.6
20260903012017 65 0 0.0 0.0 0.00 0.26 0.26 97 1018.5
20260903011541 65 0 0.0 0.0 0.00 0.26 0.26 97 1018.8
20260903011019 65 0 0.0 0.0 0.00 0.26 0.26 97 1018.8
20260903010518 65 0 0.0 0.0 0.00 0.26 0.26 97 1018.8
20260903010034 65 0 0.0 0.0 0.00 0.26 0.26 97 1019.0
20260903005519 65 0 0.0 0.0 0.00 0.26 0.26 97 1019.1
20260903005018 65 0 0.0 0.0 0.00 0.26 0.26 97 1019.2
20260903004536 65 0 0.0 0.0 0.00 0.26 0.26 97 1019.1
20260903004017 65 0 0.0 0.0 0.00 0.26 0.26 97 1019.1
20260903003518 65 0 0.0 2.0 0.00 0.26 0.26 97 1019.0
20260903003034 65 0 0.0 2.0 0.00 0.26 0.26 97 1018.9
20260903002517 65 0 0.0 0.0 0.00 0.26 0.26 97 1018.9
20260903002019 65 0 0.0 0.0 0.00 0.26 0.26 97 1018.9
20260903001534 65 0 0.0 0.0 0.00 0.26 0.26 97 1019.2
20260903001021 65 0 0.0 0.0 0.00 0.26 0.26 97 1019.1
20260903000518 65 0 0.0 0.0 0.00 0.26 0.26 96 1019.2
20260903000035 65 0 0.0 0.0 0.00 0.26 0.26 96 1019.0
20260902235517 65 0 0.0 0.0 0.00 0.26 0.26 96 1018.9
20260902235016 65 0 0.0 1.0 0.00 0.26 0.26 96 1018.7
20260902234533 65 0 0.0 1.0 0.00 0.26 0.26 96 1018.7
20260902234015 65 0 0.0 1.0 0.00 0.26 0.26 96 1018.6
20260902233520 65 0 0.0 8.0 0.00 0.26 0.26 96 1018.5
20260902233038 65 0 0.0 9.0 0.00 0.26 0.26 96 1018.5
20260902232519 65 163 0.0 9.0 0.00 0.26 0.26 96 1018.5
20260902232015 65 0 0.0 1.0 0.00 0.26 0.26 96 1018.6
20260902231546 65 0 0.0 1.0 0.00 0.26 0.26 96 1018.7
20260902231017 65 0 0.0 1.0 0.00 0.26 0.26 96 1018.7
20260902230516 66 0 0.0 1.0 0.00 0.26 0.26 96 1018.8
20260902230035 66 0 0.0 1.0 0.00 0.26 0.26 96 1018.8
20260902225516 66 0 0.0 0.0 0.00 0.26 0.26 96 1019.1
20260902225018 66 0 0.0 0.0 0.00 0.26 0.26 96 1019.0
20260902224533 66 0 0.0 2.0 0.00 0.26 0.26 96 1018.9
20260902224019 66 0 0.0 2.0 0.00 0.26 0.26 96 1018.9
20260902223520 66 0 0.0 0.0 0.00 0.26 0.26 96 1018.9
20260902223035 66 0 0.0 0.0 0.00 0.26 0.26 96 1018.9
20260902222518 67 0 0.0 0.0 0.00 0.26 0.26 96 1018.9
20260902222018 67 0 0.0 0.0 0.00 0.26 0.26 96 1019.0
20260902221537 67 0 0.0 0.0 0.00 0.26 0.26 96 1019.2
20260902221016 67 0 0.0 0.0 0.00 0.26 0.26 96 1019.5
20260902220517 67 0 0.0 0.0 0.00 0.26 0.26 96 1019.3
20260902220035 67 0 0.0 0.0 0.00 0.26 0.26 96 1019.3
20260902215518 67 0 0.0 0.0 0.00 0.26 0.26 96 1019.5
20260902215017 67 0 0.0 2.0 0.00 0.26 0.26 96 1019.4
20260902214535 67 0 0.0 2.0 0.00 0.26 0.26 96 1019.4
20260902214018 67 0 0.0 2.0 0.00 0.26 0.26 96 1019.4
20260902213517 67 0 0.0 1.0 0.00 0.26 0.26 96 1019.3
20260902213033 67 0 0.0 1.0 0.00 0.26 0.26 96 1019.5
20260902212519 67 0 0.0 0.0 0.00 0.26 0.26 96 1019.4
20260902212019 67 0 0.0 0.0 0.00 0.26 0.26 96 1019.3
20260902211536 68 0 0.0 0.0 0.00 0.26 0.26 96 1019.3
20260902211018 68 0 0.0 0.0 0.00 0.26 0.26 96 1019.1
20260902210516 68 0 0.0 1.0 0.00 0.26 0.26 96 1019.2
20260902210047 68 0 0.0 1.0 0.00 0.26 0.26 96 1019.2
20260902205516 68 0 0.0 1.0 0.00 0.26 0.26 96 1019.3
20260902205016 68 0 0.0 1.0 0.00 0.26 0.26 95 1019.4
20260902204543 68 0 0.0 0.0 0.00 0.26 0.26 96 1019.3
20260902204015 68 0 0.0 0.0 0.00 0.26 0.26 96 1019.3
20260902203517 68 0 0.0 0.0 0.00 0.26 0.26 96 1019.3
20260902203036 68 0 0.0 1.0 0.00 0.26 0.26 96 1019.4
20260902202517 68 0 0.0 1.0 0.00 0.26 0.26 96 1019.2
20260902202017 68 0 0.0 0.0 0.00 0.26 0.26 97 1019.4
20260902201534 67 0 0.0 0.0 0.00 0.26 0.26 96 1019.4
20260902201016 67 0 0.0 0.0 0.00 0.26 0.26 96 1019.4
20260902200522 67 0 0.0 0.0 0.00 0.26 0.26 96 1019.5
20260902200036 67 0 0.0 0.0 0.00 0.26 0.26 96 1019.4
20260902195515 67 0 0.0 2.0 0.00 0.26 0.26 97 1019.3
20260902195016 67 0 0.0 2.0 0.00 0.26 0.26 97 1019.4
20260902194539 67 238 0.0 2.0 0.00 0.26 0.26 97 1019.3
20260902194019 66 0 0.0 1.0 0.00 0.26 0.26 97 1019.4
20260902193517 66 0 0.0 1.0 0.00 0.26 0.26 96 1019.6
20260902193034 66 0 0.0 1.0 0.00 0.26 0.26 97 1019.7
20260902192518 66 0 0.0 1.0 0.00 0.26 0.26 96 1019.7
20260902192018 66 0 0.0 1.0 0.00 0.26 0.26 97 1019.8
20260902191534 66 0 0.0 1.0 0.02 0.26 0.26 97 1019.8
20260902191018 65 0 0.0 1.0 0.05 0.26 0.26 97 1019.9
20260902190517 65 0 0.0 0.0 0.06 0.26 0.26 97 1020.0
20260902190037 65 0 0.0 0.0 0.07 0.26 0.26 97 1020.1
20260902185519 65 0 0.0 0.0 0.09 0.26 0.26 97 1020.3
20260902185016 65 0 0.0 0.0 0.15 0.26 0.26 96 1020.5
20260902184536 65 0 0.0 0.0 0.16 0.26 0.26 97 1020.4
20260902184021 65 0 0.0 1.0 0.20 0.26 0.26 97 1020.4
20260902183517 65 0 0.0 1.0 0.22 0.26 0.26 97 1020.4
20260902183048 64 0 0.0 1.0 0.23 0.26 0.26 97 1020.5
20260902182520 64 0 0.0 1.0 0.23 0.26 0.26 97 1020.7
20260902182018 64 0 0.0 0.0 0.23 0.26 0.26 97 1020.7
20260902181535 64 0 0.0 0.0 0.21 0.24 0.24 96 1020.9
20260902181018 64 0 0.0 0.0 0.19 0.21 0.21 96 1021.0
20260902180518 64 0 0.0 3.0 0.18 0.20 0.20 96 1021.1
20260902180036 64 0 0.0 3.0 0.17 0.19 0.19 96 1020.7
20260902175517 64 314 0.0 3.0 0.14 0.16 0.16 96 1021.0
20260902175016 64 0 0.0 5.0 0.09 0.11 0.11 95 1021.4
20260902174535 64 327 0.0 5.0 0.07 0.09 0.09 95 1021.7
20260902174017 64 0 0.0 3.0 0.03 0.05 0.05 95 1021.5
20260902173520 64 0 0.0 2.0 0.02 0.04 0.04 95 1021.5
20260902173038 65 0 0.0 1.0 0.01 0.03 0.03 95 1021.1
20260902172516 65 0 0.0 0.0 0.01 0.03 0.03 95 1020.8
20260902172016 65 0 0.0 1.0 0.01 0.03 0.03 94 1020.8
20260902171535 65 0 0.0 1.0 0.01 0.03 0.03 94 1020.9
20260902171015 65 0 0.0 0.0 0.00 0.02 0.02 94 1020.6
20260902170517 65 0 0.0 0.0 0.00 0.02 0.02 94 1020.4
20260902170034 65 0 0.0 0.0 0.00 0.02 0.02 94 1020.4
20260902165517 65 0 0.0 0.0 0.00 0.04 0.02 94 1020.4
20260902165021 65 0 0.0 0.0 0.00 0.04 0.02 94 1020.5
20260902164540 65 0 0.0 0.0 0.00 0.04 0.02 94 1020.5
20260902164016 65 0 0.0 0.0 0.00 0.04 0.02 94 1020.4
20260902163516 65 0 0.0 0.0 0.00 0.04 0.02 94 1020.6
20260902163033 65 0 0.0 0.0 0.00 0.04 0.02 94 1020.7
20260902162518 65 0 0.0 0.0 0.00 0.04 0.02 94 1020.8
20260902162017 65 0 0.0 1.0 0.00 0.04 0.02 94 1020.8
20260902161537 65 0 0.0 1.0 0.00 0.04 0.02 94 1020.6
20260902161016 65 0 0.0 0.0 0.00 0.04 0.02 94 1020.7
20260902160519 65 0 0.0 0.0 0.00 0.04 0.02 94 1020.6
20260902160037 64 0 0.0 1.0 0.00 0.04 0.02 94 1020.7
20260902155517 64 0 0.0 1.0 0.00 0.06 0.02 94 1020.7
20260902155020 64 0 0.0 0.0 0.00 0.06 0.02 94 1020.5
20260902154541 64 0 0.0 1.0 0.00 0.06 0.02 94 1020.6